sat.trackr.live / text

‹ back to catalog

GPS BIIF-6 (PRN 06)

NORAD 39741 · 2014-026A

PAYLOAD ACTIVE UNKNOWN

§ Identity

Operator
Country
US
Launch date
2014-05-17
Launch site
AFETR
Launch vehicle
Mass (kg)
RCS (m²)
20.52

Purposes: earth_obs, nav

External: N2YO · Heavens-Above · Gunter

§ Orbital elements

Epoch: 2026-09-15T04:59:35.461248Z

Period
718.01 min
Inclination
56.4473°
Eccentricity
0.0039388
Mean motion
2.00554836 rev/d
Perigee alt
20,078.4 km
Apogee alt
20,287.6 km
Semi-major
26,561.1 km
B*
0.0000e+0
RAAN
328.0100°
Arg perigee
324.1391°
Mean anomaly
35.6581°
Rev number
9,034

§ Raw data

GPS BIIF-6  (PRN 06)1 39741U 14026A   26258.20804932 -.00000096  00000+0  00000+0 0  99922 39741  56.4473 328.0100 0039388 324.1391  35.6581  2.00554836 90340

JSON: /api/v1/satellites/39741 · /tle

For live sub-satellite position, see the globe view (requires WebGL).

§ Visibility from observer

Set your observer location to see the next 7 days of passes ≥ 10°. The values pass through the URL so the page stays shareable.

No JS? Fill the form by hand. The geolocation button needs JavaScript.